Simultaneous Nadir Overpasses (SNOs) Predictions

Prediction of SNOs between METOP-B and TERRA Satellite Orbit:

Table of predicted SNOs for the next 14.0 days since TLE Epoch: 9/21/2013
Index Date (METOP-B) Time (METOP-B) Lat,Lon (METOP-B) SZA (METOP-B ) Date (TERRA) Time (TERRA) Lat,Lon (TERRA) SZA (TERRA ) Distance(km) Time Diff (sec)
1 09/23/2013 08:56:25 -81.31, -87.09 95.54 09/23/2013 08:56:52 -81.30, -87.17 95.54 1.46 27
2 09/23/2013 09:47:05 81.31, 80.64 84.53 09/23/2013 09:46:18 81.31, 80.58 84.50 1.17 47
3 09/26/2013 04:30:46 -81.31, -20.77 94.43 09/26/2013 04:31:04 -81.31, -20.62 94.41 2.52 18
4 09/26/2013 05:21:26 81.31, 146.98 85.64 09/26/2013 05:20:30 81.31, 147.10 85.62 2.03 56
5 09/29/2013 00:05:07 -81.31, 45.92 93.28 09/29/2013 00:05:17 -81.31, 45.82 93.29 1.59 10
6 09/
